Time,TemperatureF,DewpointF,PressureIn,WindDirection,WindDirectionDegrees,WindSpeedMPH,WindSpeedGustMPH,Humidity,HourlyPrecipIn,Conditions,Clouds,dailyrainin,SoftwareType,DateUTC
2013-05-18 00:01:00,70.8,61.3,29.90,South,180,0.0,0.0,72,0.00,,,0.00,WUHU216HW,2013-05-18 04:01:00,
2013-05-18 00:06:00,70.8,61.7,29.89,South,180,0.0,0.0,73,0.00,,,0.00,WUHU216HW,2013-05-18 04:06:00,
2013-05-18 00:11:00,70.8,61.7,29.89,South,180,0.0,0.0,73,0.00,,,0.00,WUHU216HW,2013-05-18 04:11:00,
2013-05-18 00:16:00,70.7,61.5,29.90,South,180,0.0,0.0,73,0.00,,,0.00,WUHU216HW,2013-05-18 04:16:00,
2013-05-18 00:21:00,70.7,61.5,29.90,South,180,0.0,0.0,73,0.00,,,0.00,WUHU216HW,2013-05-18 04:21:00,
2013-05-18 00:26:00,70.5,61.3,29.90,South,180,0.0,0.0,73,0.00,,,0.00,WUHU216HW,2013-05-18 04:26:00,
2013-05-18 00:31:00,70.5,61.3,29.90,South,180,0.0,0.0,73,0.00,,,0.00,WUHU216HW,2013-05-18 04:31:00,
2013-05-18 00:36:00,70.5,61.3,29.90,South,180,0.0,0.0,73,0.00,,,0.00,WUHU216HW,2013-05-18 04:36:00,
2013-05-18 00:41:00,70.5,61.7,29.89,South,180,0.0,0.0,74,0.00,,,0.00,WUHU216HW,2013-05-18 04:41:00,
2013-05-18 00:46:00,70.3,61.5,29.89,South,180,0.0,0.0,74,0.00,,,0.00,WUHU216HW,2013-05-18 04:46:00,
2013-05-18 00:51:00,70.3,61.5,29.89,South,180,0.0,0.0,74,0.00,,,0.00,WUHU216HW,2013-05-18 04:51:00,
2013-05-18 00:56:00,70.3,61.5,29.89,South,180,0.0,0.0,74,0.00,,,0.00,WUHU216HW,2013-05-18 04:56:00,
2013-05-18 01:01:00,70.1,61.4,29.89,South,180,0.0,0.0,74,0.00,,,0.00,WUHU216HW,2013-05-18 05:01:00,
2013-05-18 01:06:00,70.1,61.4,29.89,South,180,0.0,0.0,74,0.00,,,0.00,WUHU216HW,2013-05-18 05:06:00,
2013-05-18 01:11:00,69.9,61.2,29.88,South,180,0.0,0.0,74,0.00,,,0.00,WUHU216HW,2013-05-18 05:11:00,
2013-05-18 01:16:00,69.8,61.0,29.88,South,180,0.0,0.0,74,0.00,,,0.00,WUHU216HW,2013-05-18 05:16:00,
2013-05-18 01:21:00,69.6,60.8,29.88,South,180,0.0,0.0,74,0.00,,,0.00,WUHU216HW,2013-05-18 05:21:00,
2013-05-18 01:26:00,69.6,61.2,29.88,South,180,0.0,0.0,75,0.00,,,0.00,WUHU216HW,2013-05-18 05:26:00,
2013-05-18 01:31:00,69.6,61.2,29.88,South,180,0.0,0.0,75,0.00,,,0.00,WUHU216HW,2013-05-18 05:31:00,
2013-05-18 01:36:00,69.6,61.2,29.88,South,180,0.0,0.0,75,0.00,,,0.00,WUHU216HW,2013-05-18 05:36:00,
2013-05-18 01:41:00,69.4,61.1,29.88,South,180,0.0,0.0,75,0.00,,,0.00,WUHU216HW,2013-05-18 05:41:00,
2013-05-18 01:46:00,69.4,61.1,29.88,South,180,0.0,0.0,75,0.00,,,0.00,WUHU216HW,2013-05-18 05:46:00,
2013-05-18 01:51:00,69.4,61.4,29.88,South,180,0.0,0.0,76,0.00,,,0.00,WUHU216HW,2013-05-18 05:51:00,
2013-05-18 01:56:00,69.4,61.4,29.88,South,180,0.0,0.0,76,0.00,,,0.00,WUHU216HW,2013-05-18 05:56:00,
2013-05-18 02:01:00,69.4,61.4,29.88,South,180,0.0,0.0,76,0.00,,,0.00,WUHU216HW,2013-05-18 06:01:00,
2013-05-18 02:06:00,69.4,61.4,29.88,South,180,0.0,0.0,76,0.00,,,0.00,WUHU216HW,2013-05-18 06:06:00,
2013-05-18 02:11:00,69.4,61.4,29.88,South,180,0.0,0.0,76,0.00,,,0.00,WUHU216HW,2013-05-18 06:11:00,
2013-05-18 02:16:00,69.4,61.4,29.88,South,180,0.0,0.0,76,0.00,,,0.00,WUHU216HW,2013-05-18 06:16:00,
2013-05-18 02:21:00,69.4,61.4,29.88,South,180,0.0,0.0,76,0.00,,,0.00,WUHU216HW,2013-05-18 06:21:00,
2013-05-18 02:26:00,69.2,61.7,29.87,South,180,0.0,0.0,77,0.00,,,0.00,WUHU216HW,2013-05-18 06:26:00,
2013-05-18 02:31:00,69.2,61.7,29.87,South,180,0.0,0.0,77,0.00,,,0.00,WUHU216HW,2013-05-18 06:31:00,
2013-05-18 02:36:00,69.0,61.5,29.87,South,180,0.0,0.0,77,0.00,,,0.00,WUHU216HW,2013-05-18 06:36:00,
2013-05-18 02:41:00,69.0,61.5,29.87,South,180,0.0,0.0,77,0.00,,,0.00,WUHU216HW,2013-05-18 06:41:00,
2013-05-18 02:46:00,68.9,61.3,29.88,South,180,0.0,0.0,77,0.00,,,0.00,WUHU216HW,2013-05-18 06:46:00,
2013-05-18 02:51:00,68.7,61.2,29.88,South,180,0.0,0.0,77,0.00,,,0.00,WUHU216HW,2013-05-18 06:51:00,
2013-05-18 02:56:00,68.7,61.2,29.88,South,180,0.0,0.0,77,0.00,,,0.00,WUHU216HW,2013-05-18 06:56:00,
2013-05-18 03:01:00,68.5,61.4,29.88,South,180,0.0,0.0,78,0.00,,,0.00,WUHU216HW,2013-05-18 07:01:00,
2013-05-18 03:06:00,68.7,61.5,29.88,South,180,0.0,0.0,78,0.00,,,0.00,WUHU216HW,2013-05-18 07:06:00,
2013-05-18 03:11:00,68.7,61.5,29.88,South,180,0.0,0.0,78,0.00,,,0.00,WUHU216HW,2013-05-18 07:11:00,
2013-05-18 03:16:00,68.7,61.5,29.88,South,180,0.0,0.0,78,0.00,,,0.00,WUHU216HW,2013-05-18 07:16:00,
2013-05-18 03:21:00,68.7,61.5,29.88,South,180,0.0,0.0,78,0.00,,,0.00,WUHU216HW,2013-05-18 07:21:00,
2013-05-18 03:26:00,68.7,61.9,29.88,South,180,0.0,0.0,79,0.00,,,0.00,WUHU216HW,2013-05-18 07:26:00,
2013-05-18 03:31:00,68.7,61.9,29.88,South,180,0.0,0.0,79,0.00,,,0.00,WUHU216HW,2013-05-18 07:31:00,
2013-05-18 03:36:00,68.7,61.9,29.89,South,180,0.0,0.0,79,0.00,,,0.00,WUHU216HW,2013-05-18 07:36:00,
2013-05-18 03:41:00,68.7,61.9,29.88,NW,315,0.0,0.0,79,0.00,,,0.00,WUHU216HW,2013-05-18 07:41:00,
2013-05-18 03:46:00,68.7,61.9,29.88,NW,315,0.0,0.0,79,0.00,,,0.00,WUHU216HW,2013-05-18 07:46:00,
2013-05-18 03:52:00,68.9,62.1,29.88,NW,315,0.0,0.0,79,0.00,,,0.00,WUHU216HW,2013-05-18 07:52:00,
2013-05-18 03:57:00,68.9,62.1,29.88,WSW,248,0.0,0.0,79,0.00,,,0.00,WUHU216HW,2013-05-18 07:57:00,
2013-05-18 04:02:00,69.0,62.2,29.88,South,180,0.0,0.0,79,0.00,,,0.00,WUHU216HW,2013-05-18 08:02:00,
2013-05-18 04:07:00,69.0,62.2,29.88,South,180,0.0,0.0,79,0.00,,,0.00,WUHU216HW,2013-05-18 08:07:00,
2013-05-18 04:12:00,69.0,62.2,29.88,South,180,0.0,0.0,79,0.00,,,0.00,WUHU216HW,2013-05-18 08:12:00,
2013-05-18 04:17:00,69.2,62.4,29.88,South,180,0.0,0.0,79,0.00,,,0.00,WUHU216HW,2013-05-18 08:17:00,
2013-05-18 04:22:00,69.2,62.4,29.88,South,180,0.0,0.0,79,0.00,,,0.00,WUHU216HW,2013-05-18 08:22:00,
2013-05-18 04:27:00,69.4,62.2,29.88,South,180,0.0,0.0,78,0.00,,,0.00,WUHU216HW,2013-05-18 08:27:00,
2013-05-18 04:32:00,69.4,62.2,29.88,South,180,0.0,0.0,78,0.00,,,0.00,WUHU216HW,2013-05-18 08:32:00,
2013-05-18 04:37:00,69.4,62.2,29.88,South,180,0.0,0.0,78,0.00,,,0.00,WUHU216HW,2013-05-18 08:37:00,
2013-05-18 04:42:00,69.4,62.2,29.88,South,180,0.0,0.0,78,0.00,,,0.00,WUHU216HW,2013-05-18 08:42:00,
2013-05-18 04:47:00,69.4,62.2,29.88,South,180,0.0,0.0,78,0.00,,,0.00,WUHU216HW,2013-05-18 08:47:00,
2013-05-18 04:52:00,69.4,62.2,29.88,South,180,0.0,0.0,78,0.00,,,0.00,WUHU216HW,2013-05-18 08:52:00,
2013-05-18 04:57:00,69.2,62.0,29.88,South,180,0.0,0.0,78,0.00,,,0.00,WUHU216HW,2013-05-18 08:57:00,
2013-05-18 05:02:00,69.2,62.0,29.88,South,180,0.0,0.0,78,0.00,,,0.00,WUHU216HW,2013-05-18 09:02:00,
2013-05-18 05:07:00,69.0,61.9,29.88,South,180,0.0,0.0,78,0.00,,,0.00,WUHU216HW,2013-05-18 09:07:00,
2013-05-18 05:12:00,69.0,61.9,29.88,South,180,0.0,0.0,78,0.00,,,0.00,WUHU216HW,2013-05-18 09:12:00,
2013-05-18 05:17:00,69.0,61.9,29.89,South,180,0.0,0.0,78,0.00,,,0.00,WUHU216HW,2013-05-18 09:17:00,
2013-05-18 05:22:00,68.9,61.7,29.89,South,180,0.0,0.0,78,0.00,,,0.00,WUHU216HW,2013-05-18 09:22:00,
2013-05-18 05:27:00,68.9,61.7,29.89,South,180,0.0,0.0,78,0.00,,,0.00,WUHU216HW,2013-05-18 09:27:00,
2013-05-18 05:32:00,68.9,61.7,29.89,South,180,0.0,0.0,78,0.00,,,0.00,WUHU216HW,2013-05-18 09:32:00,
2013-05-18 05:37:00,68.7,61.5,29.89,South,180,0.0,0.0,78,0.00,,,0.00,WUHU216HW,2013-05-18 09:37:00,
2013-05-18 05:42:00,68.7,61.5,29.89,South,180,0.0,0.0,78,0.00,,,0.00,WUHU216HW,2013-05-18 09:42:00,
2013-05-18 05:47:00,68.5,61.4,29.89,South,180,0.0,0.0,78,0.00,,,0.00,WUHU216HW,2013-05-18 09:47:00,
2013-05-18 05:52:00,68.5,61.4,29.89,South,180,0.0,0.0,78,0.00,,,0.00,WUHU216HW,2013-05-18 09:52:00,
2013-05-18 05:57:00,68.5,61.4,29.89,South,180,0.0,0.0,78,0.00,,,0.00,WUHU216HW,2013-05-18 09:57:00,
2013-05-18 06:02:00,68.5,61.4,29.89,South,180,0.0,0.0,78,0.00,,,0.00,WUHU216HW,2013-05-18 10:02:00,
2013-05-18 06:07:00,68.3,61.2,29.89,South,180,0.0,0.0,78,0.00,,,0.00,WUHU216HW,2013-05-18 10:07:00,
2013-05-18 06:12:00,68.3,61.2,29.89,South,180,0.0,0.0,78,0.00,,,0.00,WUHU216HW,2013-05-18 10:12:00,
2013-05-18 06:17:00,68.1,61.1,29.89,South,180,0.0,0.0,78,0.00,,,0.00,WUHU216HW,2013-05-18 10:17:00,
2013-05-18 06:22:00,68.0,60.9,29.89,South,180,0.0,0.0,78,0.00,,,0.00,WUHU216HW,2013-05-18 10:22:00,
2013-05-18 06:27:00,67.8,61.1,29.89,South,180,0.0,0.0,79,0.00,,,0.00,WUHU216HW,2013-05-18 10:27:00,
2013-05-18 06:32:00,67.8,60.7,29.89,South,180,0.0,0.0,78,0.00,,,0.00,WUHU216HW,2013-05-18 10:32:00,
2013-05-18 06:37:00,67.6,60.9,29.89,South,180,0.0,0.0,79,0.00,,,0.00,WUHU216HW,2013-05-18 10:37:00,
2013-05-18 06:42:00,67.6,60.9,29.90,South,180,0.0,0.0,79,0.00,,,0.00,WUHU216HW,2013-05-18 10:42:00,
2013-05-18 06:47:00,67.6,60.9,29.90,South,180,0.0,0.0,79,0.00,,,0.00,WUHU216HW,2013-05-18 10:47:00,
2013-05-18 06:52:00,67.6,60.9,29.90,South,180,0.0,0.0,79,0.00,,,0.00,WUHU216HW,2013-05-18 10:52:00,
2013-05-18 06:57:00,67.6,60.9,29.90,South,180,0.0,0.0,79,0.00,,,0.00,WUHU216HW,2013-05-18 10:57:00,
2013-05-18 07:02:00,67.4,60.7,29.90,South,180,0.0,0.0,79,0.00,,,0.00,WUHU216HW,2013-05-18 11:02:00,
2013-05-18 07:07:00,67.4,60.7,29.90,South,180,0.0,0.0,79,0.00,,,0.00,WUHU216HW,2013-05-18 11:07:00,
2013-05-18 07:12:00,67.2,60.9,29.90,South,180,0.0,0.0,80,0.00,,,0.00,WUHU216HW,2013-05-18 11:12:00,
2013-05-18 07:17:00,67.2,60.9,29.91,South,180,0.0,0.0,80,0.00,,,0.00,WUHU216HW,2013-05-18 11:17:00,
2013-05-18 07:22:00,67.2,60.9,29.91,South,180,0.0,0.0,80,0.00,,,0.00,WUHU216HW,2013-05-18 11:22:00,
2013-05-18 07:27:00,67.2,60.9,29.91,SSE,158,0.0,0.0,80,0.00,,,0.00,WUHU216HW,2013-05-18 11:27:00,
2013-05-18 07:32:00,67.6,61.3,29.91,SSE,158,0.0,0.0,80,0.00,,,0.00,WUHU216HW,2013-05-18 11:32:00,
2013-05-18 07:37:00,67.6,61.3,29.92,SSE,158,0.0,0.0,80,0.00,,,0.00,WUHU216HW,2013-05-18 11:37:00,
2013-05-18 07:42:00,67.8,61.5,29.92,SSW,203,0.0,0.0,80,0.00,,,0.00,WUHU216HW,2013-05-18 11:42:00,
2013-05-18 07:47:00,68.1,61.8,29.92,SE,135,0.0,0.0,80,0.00,,,0.00,WUHU216HW,2013-05-18 11:47:00,
2013-05-18 07:52:00,68.3,61.6,29.92,SSE,158,0.0,0.0,79,0.00,,,0.00,WUHU216HW,2013-05-18 11:52:00,
2013-05-18 07:57:00,68.5,61.8,29.92,South,180,0.0,0.0,79,0.00,,,0.00,WUHU216HW,2013-05-18 11:57:00,
2013-05-18 08:02:00,68.7,61.5,29.92,South,180,0.0,0.0,78,0.00,,,0.00,WUHU216HW,2013-05-18 12:02:00,
2013-05-18 08:07:00,68.9,61.7,29.92,SSW,203,0.0,0.0,78,0.00,,,0.00,WUHU216HW,2013-05-18 12:07:00,
2013-05-18 08:12:00,69.0,61.7,29.92,SSW,203,0.0,0.0,77,0.00,,,0.00,WUHU216HW,2013-05-18 12:12:00,
2013-05-18 08:17:00,69.4,61.8,29.92,South,180,0.0,0.0,77,0.00,,,0.00,WUHU216HW,2013-05-18 12:17:00,
2013-05-18 08:22:00,69.6,62.0,29.92,SW,225,0.0,0.0,77,0.00,,,0.00,WUHU216HW,2013-05-18 12:22:00,
2013-05-18 08:27:00,69.9,61.9,29.92,SW,225,0.0,0.0,76,0.00,,,0.00,WUHU216HW,2013-05-18 12:27:00,
2013-05-18 08:32:00,70.3,61.9,29.92,SW,225,0.0,0.0,75,0.00,,,0.00,WUHU216HW,2013-05-18 12:32:00,
2013-05-18 08:37:00,70.5,62.1,29.92,SW,225,0.0,0.0,75,0.00,,,0.00,WUHU216HW,2013-05-18 12:37:00,
2013-05-18 08:42:00,70.7,62.3,29.92,SW,225,0.0,0.0,75,0.00,,,0.00,WUHU216HW,2013-05-18 12:42:00,
2013-05-18 08:47:00,70.8,62.1,29.92,West,270,0.0,0.0,74,0.00,,,0.00,WUHU216HW,2013-05-18 12:47:00,
2013-05-18 08:52:00,71.2,62.1,29.93,WSW,248,0.0,0.0,73,0.00,,,0.00,WUHU216HW,2013-05-18 12:52:00,
2013-05-18 08:57:00,71.2,62.1,29.93,SW,225,0.0,0.0,73,0.00,,,0.00,WUHU216HW,2013-05-18 12:57:00,
2013-05-18 09:02:00,71.2,62.1,29.93,NW,315,0.0,0.0,73,0.00,,,0.00,WUHU216HW,2013-05-18 13:02:00,
2013-05-18 09:07:00,71.2,61.7,29.93,North,0,0.0,0.0,72,0.00,,,0.00,WUHU216HW,2013-05-18 13:07:00,
2013-05-18 09:12:00,71.2,61.7,29.93,ENE,68,0.0,0.0,72,0.00,,,0.00,WUHU216HW,2013-05-18 13:12:00,
2013-05-18 09:17:00,71.0,61.5,29.93,NW,315,0.0,0.0,72,0.00,,,0.00,WUHU216HW,2013-05-18 13:17:00,
2013-05-18 09:22:00,70.8,61.3,29.93,SSW,203,0.0,0.0,72,0.00,,,0.00,WUHU216HW,2013-05-18 13:22:00,
2013-05-18 09:27:00,70.8,61.5,29.94,WNW,293,0.0,0.0,72,0.00,,,0.00,WUHU216HW,2013-05-18 13:27:00,
2013-05-18 09:32:00,71.0,61.5,29.94,NE,45,0.0,0.0,72,0.00,,,0.00,WUHU216HW,2013-05-18 13:32:00,
2013-05-18 09:37:00,71.2,61.7,29.94,South,180,0.0,0.0,72,0.00,,,0.00,WUHU216HW,2013-05-18 13:37:00,
2013-05-18 09:42:00,71.2,61.7,29.94,WNW,293,0.0,0.0,72,0.00,,,0.00,WUHU216HW,2013-05-18 13:42:00,
2013-05-18 09:47:00,71.2,61.7,29.93,WSW,248,0.0,0.0,72,0.00,,,0.00,WUHU216HW,2013-05-18 13:47:00,
2013-05-18 09:52:00,71.4,61.9,29.94,NNW,338,0.0,0.0,72,0.00,,,0.00,WUHU216HW,2013-05-18 13:52:00,
2013-05-18 09:57:00,71.4,61.9,29.94,SW,225,0.0,0.0,72,0.00,,,0.00,WUHU216HW,2013-05-18 13:57:00,
2013-05-18 10:02:00,71.4,61.9,29.94,West,270,0.0,0.0,72,0.00,,,0.00,WUHU216HW,2013-05-18 14:02:00,
2013-05-18 10:07:00,71.7,62.2,29.94,NW,315,0.0,0.0,72,0.00,,,0.00,WUHU216HW,2013-05-18 14:07:00,
2013-05-18 10:12:00,71.9,62.4,29.94,NNW,338,0.0,0.0,72,0.00,,,0.00,WUHU216HW,2013-05-18 14:12:00,
2013-05-18 10:17:00,71.9,62.4,29.94,West,270,0.0,0.0,72,0.00,,,0.00,WUHU216HW,2013-05-18 14:17:00,
2013-05-18 10:22:00,72.1,62.6,29.93,NW,315,0.0,0.0,72,0.00,,,0.00,WUHU216HW,2013-05-18 14:22:00,
2013-05-18 10:27:00,72.3,62.8,29.94,WNW,293,0.0,0.0,72,0.00,,,0.00,WUHU216HW,2013-05-18 14:27:00,
2013-05-18 10:32:00,72.6,63.1,29.93,North,0,0.0,0.0,72,0.00,,,0.00,WUHU216HW,2013-05-18 14:32:00,
2013-05-18 10:37:00,73.0,63.5,29.94,SW,225,0.0,0.0,72,0.00,,,0.00,WUHU216HW,2013-05-18 14:37:00,
2013-05-18 10:42:00,73.2,63.7,29.94,NW,315,0.0,0.0,72,0.00,,,0.00,WUHU216HW,2013-05-18 14:42:00,
2013-05-18 10:47:00,73.5,64.0,29.94,WNW,293,0.0,0.0,72,0.00,,,0.00,WUHU216HW,2013-05-18 14:47:00,
2013-05-18 10:52:00,73.5,63.6,29.93,North,0,0.0,0.0,71,0.00,,,0.00,WUHU216HW,2013-05-18 14:52:00,
2013-05-18 10:57:00,73.9,64.0,29.94,NW,315,0.0,0.0,71,0.00,,,0.00,WUHU216HW,2013-05-18 14:57:00,
2013-05-18 11:02:00,74.1,64.1,29.94,West,270,0.0,0.0,71,0.00,,,0.00,WUHU216HW,2013-05-18 15:02:00,
2013-05-18 11:07:00,74.4,64.4,29.94,NW,315,0.0,0.0,71,0.00,,,0.00,WUHU216HW,2013-05-18 15:07:00,
2013-05-18 11:12:00,74.4,64.4,29.94,West,270,0.0,0.0,71,0.00,,,0.00,WUHU216HW,2013-05-18 15:12:00,
2013-05-18 11:17:00,74.6,64.6,29.94,WNW,293,0.0,0.0,71,0.00,,,0.00,WUHU216HW,2013-05-18 15:17:00,
2013-05-18 11:22:00,74.8,64.8,29.94,West,270,0.0,0.0,71,0.00,,,0.00,WUHU216HW,2013-05-18 15:22:00,
2013-05-18 11:27:00,74.8,64.6,29.94,West,270,0.0,0.0,71,0.00,,,0.00,WUHU216HW,2013-05-18 15:27:00,
2013-05-18 11:32:00,74.6,64.6,29.94,WSW,248,0.0,0.0,71,0.00,,,0.00,WUHU216HW,2013-05-18 15:32:00,
2013-05-18 11:37:00,74.4,64.4,29.94,WSW,248,0.0,0.0,71,0.00,,,0.00,WUHU216HW,2013-05-18 15:37:00,
2013-05-18 11:42:00,74.3,64.3,29.94,WNW,293,0.0,0.0,71,0.00,,,0.00,WUHU216HW,2013-05-18 15:42:00,
2013-05-18 11:47:00,74.1,64.1,29.94,NNW,338,0.0,0.0,70,0.00,,,0.00,WUHU216HW,2013-05-18 15:47:00,
2013-05-18 11:52:00,74.1,64.1,29.95,NNE,23,0.0,0.0,71,0.00,,,0.00,WUHU216HW,2013-05-18 15:52:00,
2013-05-18 11:57:00,73.9,64.0,29.94,NW,315,0.0,0.0,71,0.00,,,0.00,WUHU216HW,2013-05-18 15:57:00,
2013-05-18 12:02:00,73.7,63.4,29.94,NW,315,0.0,0.0,70,0.00,,,0.00,WUHU216HW,2013-05-18 16:02:00,
2013-05-18 12:07:00,73.5,63.6,29.94,South,180,0.0,0.0,71,0.00,,,0.00,WUHU216HW,2013-05-18 16:07:00,
2013-05-18 12:12:00,73.5,63.6,29.95,NE,45,0.0,0.0,71,0.00,,,0.00,WUHU216HW,2013-05-18 16:12:00,
2013-05-18 12:17:00,73.7,63.8,29.94,NNW,338,0.0,0.0,71,0.00,,,0.00,WUHU216HW,2013-05-18 16:17:00,
2013-05-18 12:23:00,73.7,63.8,29.94,WNW,293,0.0,0.0,71,0.00,,,0.00,WUHU216HW,2013-05-18 16:23:00,
2013-05-18 12:28:00,73.7,63.8,29.94,NNW,338,0.0,0.0,71,0.00,,,0.00,WUHU216HW,2013-05-18 16:28:00,
2013-05-18 12:33:00,73.7,63.4,29.94,NW,315,0.0,0.0,70,0.00,,,0.00,WUHU216HW,2013-05-18 16:33:00,
2013-05-18 12:37:00,73.7,63.8,29.94,West,270,0.0,0.0,71,0.00,,,0.00,WUHU216HW,2013-05-18 16:37:00,
2013-05-18 12:42:00,73.7,63.8,29.94,North,0,0.0,0.0,71,0.00,,,0.00,WUHU216HW,2013-05-18 16:42:00,
2013-05-18 12:47:00,73.9,64.0,29.94,NE,45,0.0,0.0,71,0.00,,,0.00,WUHU216HW,2013-05-18 16:47:00,
2013-05-18 12:53:00,73.7,63.8,29.94,West,270,0.0,0.0,71,0.00,,,0.00,WUHU216HW,2013-05-18 16:53:00,
2013-05-18 12:58:00,73.5,63.6,29.94,NNW,338,0.0,0.0,71,0.00,,,0.00,WUHU216HW,2013-05-18 16:58:00,
2013-05-18 13:03:00,73.5,63.6,29.94,NNW,338,0.0,0.0,71,0.00,,,0.00,WUHU216HW,2013-05-18 17:03:00,
2013-05-18 13:08:00,73.4,63.5,29.94,North,0,0.0,0.0,71,0.00,,,0.00,WUHU216HW,2013-05-18 17:08:00,
2013-05-18 13:13:00,73.4,63.5,29.94,SSW,203,0.0,0.0,71,0.00,,,0.00,WUHU216HW,2013-05-18 17:13:00,
2013-05-18 13:18:00,73.4,63.5,29.94,West,270,0.0,0.0,71,0.00,,,0.00,WUHU216HW,2013-05-18 17:18:00,
2013-05-18 13:23:00,73.4,63.8,29.94,NNW,338,0.0,0.0,72,0.00,,,0.00,WUHU216HW,2013-05-18 17:23:00,
2013-05-18 13:28:00,73.2,63.7,29.94,WNW,293,0.0,0.0,72,0.00,,,0.00,WUHU216HW,2013-05-18 17:28:00,
2013-05-18 13:33:00,73.2,63.7,29.94,WNW,293,0.0,0.0,72,0.00,,,0.00,WUHU216HW,2013-05-18 17:33:00,
2013-05-18 13:38:00,73.2,63.7,29.94,SE,135,0.0,0.0,72,0.00,,,0.00,WUHU216HW,2013-05-18 17:38:00,
2013-05-18 13:43:00,73.2,63.7,29.94,South,180,0.0,0.0,72,0.00,,,0.00,WUHU216HW,2013-05-18 17:43:00,
2013-05-18 13:48:00,73.2,63.7,29.93,SSW,203,0.0,0.0,72,0.00,,,0.00,WUHU216HW,2013-05-18 17:48:00,
2013-05-18 13:53:00,73.2,64.0,29.94,SSW,203,0.0,0.0,73,0.00,,,0.00,WUHU216HW,2013-05-18 17:53:00,
2013-05-18 13:58:00,73.4,64.2,29.93,SSW,203,0.0,0.0,73,0.00,,,0.00,WUHU216HW,2013-05-18 17:58:00,
2013-05-18 14:03:00,73.4,64.2,29.93,SW,225,0.0,0.0,73,0.00,,,0.00,WUHU216HW,2013-05-18 18:03:00,
2013-05-18 14:08:00,73.5,64.4,29.92,SW,225,0.0,0.0,73,0.00,,,0.00,WUHU216HW,2013-05-18 18:08:00,
2013-05-18 14:13:00,73.5,64.4,29.93,SW,225,0.0,0.0,73,0.00,,,0.00,WUHU216HW,2013-05-18 18:13:00,
2013-05-18 14:18:00,73.5,64.4,29.92,WNW,293,0.0,0.0,73,0.00,,,0.00,WUHU216HW,2013-05-18 18:18:00,
2013-05-18 14:23:00,73.5,64.4,29.92,West,270,0.0,0.0,73,0.00,,,0.00,WUHU216HW,2013-05-18 18:23:00,
2013-05-18 14:28:00,73.5,64.4,29.92,WNW,293,0.0,0.0,73,0.00,,,0.00,WUHU216HW,2013-05-18 18:28:00,
2013-05-18 14:33:00,73.5,64.4,29.92,WNW,293,0.0,0.0,73,0.00,,,0.00,WUHU216HW,2013-05-18 18:33:00,
2013-05-18 14:38:00,73.5,64.4,29.91,SSW,203,0.0,0.0,73,0.00,,,0.00,WUHU216HW,2013-05-18 18:38:00,
2013-05-18 14:43:00,73.5,64.4,29.91,West,270,0.0,0.0,73,0.00,,,0.00,WUHU216HW,2013-05-18 18:43:00,
2013-05-18 14:48:00,73.5,64.4,29.91,NW,315,0.0,0.0,73,0.00,,,0.00,WUHU216HW,2013-05-18 18:48:00,
2013-05-18 14:53:00,73.5,64.4,29.91,SW,225,0.0,0.0,73,0.00,,,0.00,WUHU216HW,2013-05-18 18:53:00,
2013-05-18 14:58:00,73.5,64.4,29.91,SW,225,0.0,0.0,73,0.00,,,0.00,WUHU216HW,2013-05-18 18:58:00,
2013-05-18 15:03:00,73.5,64.4,29.91,SW,225,0.0,0.0,73,0.00,,,0.00,WUHU216HW,2013-05-18 19:03:00,
2013-05-18 15:08:00,73.5,64.8,29.91,SW,225,0.0,0.0,74,0.00,,,0.00,WUHU216HW,2013-05-18 19:08:00,
2013-05-18 15:13:00,73.5,64.8,29.92,SSE,158,0.0,0.0,74,0.00,,,0.00,WUHU216HW,2013-05-18 19:13:00,
2013-05-18 15:18:00,73.2,64.4,29.92,SSW,203,0.0,0.0,74,0.00,,,0.00,WUHU216HW,2013-05-18 19:18:00,
2013-05-18 15:23:00,73.2,64.4,29.92,West,270,0.0,0.0,74,0.00,,,0.00,WUHU216HW,2013-05-18 19:23:00,
2013-05-18 15:28:00,73.0,64.2,29.92,WSW,248,0.0,0.0,74,0.00,,,0.00,WUHU216HW,2013-05-18 19:28:00,
2013-05-18 15:33:00,72.6,64.3,29.91,WSW,248,0.0,0.0,75,0.00,,,0.00,WUHU216HW,2013-05-18 19:33:00,
2013-05-18 15:38:00,72.5,64.5,29.91,WSW,248,0.0,0.0,76,0.00,,,0.00,WUHU216HW,2013-05-18 19:38:00,
2013-05-18 15:43:00,72.3,64.3,29.91,WSW,248,0.0,0.0,76,0.00,,,0.00,WUHU216HW,2013-05-18 19:43:00,
2013-05-18 15:48:00,72.1,64.5,29.91,WSW,248,0.0,0.0,77,0.00,,,0.00,WUHU216HW,2013-05-18 19:48:00,
2013-05-18 15:53:00,71.7,64.1,29.91,WSW,248,0.0,0.0,77,0.00,,,0.00,WUHU216HW,2013-05-18 19:53:00,
2013-05-18 15:58:00,71.7,64.5,29.91,WSW,248,0.0,0.0,78,0.00,,,0.00,WUHU216HW,2013-05-18 19:58:00,
2013-05-18 16:03:00,71.7,64.5,29.90,WSW,248,0.0,0.0,78,0.00,,,0.00,WUHU216HW,2013-05-18 20:03:00,
2013-05-18 16:08:00,71.6,64.7,29.90,WSW,248,0.0,0.0,79,0.00,,,0.00,WUHU216HW,2013-05-18 20:08:00,
2013-05-18 16:13:00,71.6,64.7,29.90,WSW,248,0.0,0.0,79,0.00,,,0.00,WUHU216HW,2013-05-18 20:13:00,
2013-05-18 16:18:00,71.6,64.9,29.90,WSW,248,0.0,0.0,79,0.00,,,0.00,WUHU216HW,2013-05-18 20:18:00,
2013-05-18 16:23:00,71.6,65.1,29.90,WSW,248,0.0,0.0,80,0.00,,,0.00,WUHU216HW,2013-05-18 20:23:00,
2013-05-18 16:28:00,71.7,65.3,29.90,WSW,248,0.0,0.0,80,0.00,,,0.00,WUHU216HW,2013-05-18 20:28:00,
2013-05-18 16:33:00,71.7,65.3,29.90,WSW,248,0.0,0.0,80,0.00,,,0.00,WUHU216HW,2013-05-18 20:33:00,
2013-05-18 16:38:00,71.7,65.3,29.90,WSW,248,0.0,0.0,80,0.00,,,0.00,WUHU216HW,2013-05-18 20:38:00,
2013-05-18 16:43:00,71.7,65.6,29.90,WSW,248,0.0,0.0,81,0.00,,,0.00,WUHU216HW,2013-05-18 20:43:00,
2013-05-18 16:48:00,71.7,65.6,29.90,WSW,248,0.0,0.0,81,0.00,,,0.00,WUHU216HW,2013-05-18 20:48:00,
2013-05-18 16:53:00,71.6,65.4,29.90,WSW,248,0.0,0.0,81,0.00,,,0.00,WUHU216HW,2013-05-18 20:53:00,
2013-05-18 16:58:00,71.7,65.6,29.89,WSW,248,0.0,0.0,81,0.00,,,0.00,WUHU216HW,2013-05-18 20:58:00,
2013-05-18 17:03:00,71.7,65.9,29.89,WSW,248,0.0,0.0,82,0.00,,,0.00,WUHU216HW,2013-05-18 21:03:00,
2013-05-18 17:08:00,71.7,65.9,29.89,WSW,248,0.0,0.0,82,0.00,,,0.00,WUHU216HW,2013-05-18 21:08:00,
2013-05-18 17:13:00,71.7,65.9,29.89,WSW,248,0.0,0.0,82,0.00,,,0.00,WUHU216HW,2013-05-18 21:13:00,
2013-05-18 17:18:00,71.7,65.9,29.90,WSW,248,0.0,0.0,82,0.00,,,0.00,WUHU216HW,2013-05-18 21:18:00,
2013-05-18 17:23:00,71.7,65.9,29.89,WSW,248,0.0,0.0,82,0.00,,,0.00,WUHU216HW,2013-05-18 21:23:00,
2013-05-18 17:28:00,71.7,65.9,29.89,WSW,248,0.0,0.0,82,0.00,,,0.00,WUHU216HW,2013-05-18 21:28:00,
2013-05-18 17:33:00,71.7,65.9,29.89,WSW,248,0.0,0.0,82,0.00,,,0.00,WUHU216HW,2013-05-18 21:33:00,
2013-05-18 17:38:00,71.7,65.9,29.89,WSW,248,0.0,0.0,82,0.00,,,0.00,WUHU216HW,2013-05-18 21:38:00,
2013-05-18 17:43:00,71.7,65.9,29.89,WSW,248,0.0,0.0,82,0.00,,,0.00,WUHU216HW,2013-05-18 21:43:00,
2013-05-18 17:48:00,71.7,66.3,29.89,WSW,248,0.0,0.0,83,0.00,,,0.00,WUHU216HW,2013-05-18 21:48:00,
2013-05-18 17:53:00,71.7,66.3,29.89,WSW,248,0.0,0.0,83,0.00,,,0.00,WUHU216HW,2013-05-18 21:53:00,
2013-05-18 17:58:00,71.6,66.1,29.89,WSW,248,0.0,0.0,83,0.00,,,0.00,WUHU216HW,2013-05-18 21:58:00,
2013-05-18 18:03:00,71.4,65.9,29.89,WSW,248,0.0,0.0,83,0.00,,,0.00,WUHU216HW,2013-05-18 22:03:00,
2013-05-18 18:08:00,71.4,65.9,29.89,WSW,248,0.0,0.0,83,0.00,,,0.00,WUHU216HW,2013-05-18 22:08:00,
2013-05-18 18:13:00,71.4,65.9,29.89,WSW,248,0.0,0.0,83,0.00,,,0.00,WUHU216HW,2013-05-18 22:13:00,
2013-05-18 18:18:00,71.4,65.9,29.89,WSW,248,0.0,0.0,83,0.00,,,0.00,WUHU216HW,2013-05-18 22:18:00,
2013-05-18 18:23:00,71.4,65.9,29.89,WSW,248,0.0,0.0,83,0.00,,,0.00,WUHU216HW,2013-05-18 22:23:00,
2013-05-18 18:28:00,71.4,65.9,29.89,WSW,248,0.0,0.0,83,0.00,,,0.00,WUHU216HW,2013-05-18 22:28:00,
2013-05-18 18:33:00,71.4,65.9,29.89,WSW,248,0.0,0.0,83,0.00,,,0.00,WUHU216HW,2013-05-18 22:33:00,
2013-05-18 18:38:00,71.4,65.9,29.89,WSW,248,0.0,0.0,83,0.00,,,0.00,WUHU216HW,2013-05-18 22:38:00,
2013-05-18 18:43:00,71.2,65.7,29.89,WSW,248,0.0,0.0,83,0.00,,,0.00,WUHU216HW,2013-05-18 22:43:00,
2013-05-18 18:48:00,71.2,65.7,29.89,WSW,248,0.0,0.0,83,0.00,,,0.00,WUHU216HW,2013-05-18 22:48:00,
2013-05-18 18:53:00,71.2,65.7,29.89,WSW,248,0.0,0.0,83,0.00,,,0.00,WUHU216HW,2013-05-18 22:53:00,
2013-05-18 18:58:00,70.8,65.4,29.89,WSW,248,0.0,0.0,83,0.00,,,0.00,WUHU216HW,2013-05-18 22:58:00,
2013-05-18 19:03:00,70.8,65.7,29.89,South,180,0.0,0.0,84,0.00,,,0.00,WUHU216HW,2013-05-18 23:03:00,
2013-05-18 19:08:00,70.8,65.7,29.89,South,180,0.0,0.0,84,0.00,,,0.00,WUHU216HW,2013-05-18 23:08:00,
2013-05-18 19:13:00,70.8,65.7,29.89,South,180,0.0,0.0,84,0.00,,,0.00,WUHU216HW,2013-05-18 23:13:00,
2013-05-18 19:18:00,70.7,65.5,29.89,South,180,0.0,0.0,84,0.00,,,0.00,WUHU216HW,2013-05-18 23:18:00,
2013-05-18 19:23:00,70.7,65.5,29.89,South,180,0.0,0.0,84,0.00,,,0.00,WUHU216HW,2013-05-18 23:23:00,
2013-05-18 19:28:00,70.5,65.4,29.90,South,180,0.0,0.0,84,0.00,,,0.00,WUHU216HW,2013-05-18 23:28:00,
2013-05-18 19:33:00,70.5,65.4,29.90,South,180,0.0,0.0,84,0.00,,,0.00,WUHU216HW,2013-05-18 23:33:00,
2013-05-18 19:38:00,70.5,65.4,29.90,South,180,0.0,0.0,84,0.00,,,0.00,WUHU216HW,2013-05-18 23:38:00,
2013-05-18 19:43:00,70.5,65.4,29.90,South,180,0.0,0.0,84,0.00,,,0.00,WUHU216HW,2013-05-18 23:43:00,
2013-05-18 19:48:00,70.5,65.4,29.90,South,180,0.0,0.0,84,0.00,,,0.00,WUHU216HW,2013-05-18 23:48:00,
2013-05-18 19:53:00,70.5,65.4,29.90,South,180,0.0,0.0,84,0.00,,,0.00,WUHU216HW,2013-05-18 23:53:00,
2013-05-18 19:58:00,70.5,65.4,29.90,South,180,0.0,0.0,84,0.00,,,0.00,WUHU216HW,2013-05-18 23:58:00,
2013-05-18 20:03:00,70.5,65.4,29.90,South,180,0.0,0.0,84,0.00,,,0.00,WUHU216HW,2013-05-19 00:03:00,
2013-05-18 20:08:00,70.3,65.5,29.90,South,180,0.0,0.0,85,0.00,,,0.00,WUHU216HW,2013-05-19 00:08:00,
2013-05-18 20:13:00,70.3,65.5,29.90,South,180,0.0,0.0,85,0.00,,,0.00,WUHU216HW,2013-05-19 00:13:00,
2013-05-18 20:18:00,70.3,65.5,29.90,South,180,0.0,0.0,85,0.00,,,0.00,WUHU216HW,2013-05-19 00:18:00,
2013-05-18 20:23:00,70.3,65.5,29.90,South,180,0.0,0.0,85,0.00,,,0.00,WUHU216HW,2013-05-19 00:23:00,
2013-05-18 20:28:00,70.3,65.5,29.90,South,180,0.0,0.0,85,0.00,,,0.00,WUHU216HW,2013-05-19 00:28:00,
2013-05-18 20:33:00,70.3,65.5,29.90,South,180,0.0,0.0,85,0.00,,,0.00,WUHU216HW,2013-05-19 00:33:00,
2013-05-18 20:38:00,70.1,65.0,29.90,South,180,0.0,0.0,84,0.00,,,0.00,WUHU216HW,2013-05-19 00:38:00,
2013-05-18 20:43:00,70.1,65.0,29.90,South,180,0.0,0.0,84,0.00,,,0.00,WUHU216HW,2013-05-19 00:43:00,
2013-05-18 20:48:00,69.9,65.2,29.90,South,180,0.0,0.0,85,0.00,,,0.00,WUHU216HW,2013-05-19 00:48:00,
2013-05-18 20:53:00,69.9,65.2,29.90,South,180,0.0,0.0,85,0.00,,,0.00,WUHU216HW,2013-05-19 00:53:00,
2013-05-18 20:58:00,69.9,65.2,29.90,South,180,0.0,0.0,85,0.00,,,0.00,WUHU216HW,2013-05-19 00:58:00,
2013-05-18 21:03:00,69.9,65.2,29.90,South,180,0.0,0.0,85,0.00,,,0.00,WUHU216HW,2013-05-19 01:03:00,
2013-05-18 21:08:00,69.8,65.0,29.90,South,180,0.0,0.0,85,0.00,,,0.00,WUHU216HW,2013-05-19 01:08:00,
2013-05-18 21:13:00,69.8,65.0,29.90,South,180,0.0,0.0,85,0.00,,,0.00,WUHU216HW,2013-05-19 01:13:00,
2013-05-18 21:18:00,69.6,64.8,29.91,South,180,0.0,0.0,85,0.00,,,0.00,WUHU216HW,2013-05-19 01:18:00,
2013-05-18 21:23:00,69.6,64.8,29.91,South,180,0.0,0.0,85,0.00,,,0.00,WUHU216HW,2013-05-19 01:23:00,
2013-05-18 21:28:00,69.6,65.1,29.91,South,180,0.0,0.0,86,0.00,,,0.00,WUHU216HW,2013-05-19 01:28:00,
2013-05-18 21:33:00,69.6,65.1,29.91,South,180,0.0,0.0,86,0.00,,,0.00,WUHU216HW,2013-05-19 01:33:00,
2013-05-18 21:38:00,69.4,65.0,29.91,South,180,0.0,0.0,86,0.00,,,0.00,WUHU216HW,2013-05-19 01:38:00,
2013-05-18 21:43:00,69.4,65.0,29.91,South,180,0.0,0.0,86,0.00,,,0.00,WUHU216HW,2013-05-19 01:43:00,
2013-05-18 21:48:00,69.4,65.0,29.91,South,180,0.0,0.0,86,0.00,,,0.00,WUHU216HW,2013-05-19 01:48:00,
2013-05-18 21:53:00,69.4,65.0,29.91,South,180,0.0,0.0,86,0.00,,,0.00,WUHU216HW,2013-05-19 01:53:00,
2013-05-18 21:58:00,69.4,65.0,29.91,South,180,0.0,0.0,86,0.00,,,0.00,WUHU216HW,2013-05-19 01:58:00,
2013-05-18 22:03:00,69.4,65.0,29.91,South,180,0.0,0.0,86,0.00,,,0.00,WUHU216HW,2013-05-19 02:03:00,
2013-05-18 22:08:00,69.4,65.0,29.90,South,180,0.0,0.0,86,0.00,,,0.00,WUHU216HW,2013-05-19 02:08:00,
2013-05-18 22:13:00,69.4,65.0,29.91,South,180,0.0,0.0,86,0.00,,,0.00,WUHU216HW,2013-05-19 02:13:00,
2013-05-18 22:18:00,69.2,64.8,29.91,South,180,0.0,0.0,86,0.00,,,0.00,WUHU216HW,2013-05-19 02:18:00,
2013-05-18 22:23:00,69.0,64.6,29.91,South,180,0.0,0.0,86,0.00,,,0.00,WUHU216HW,2013-05-19 02:23:00,
2013-05-18 22:28:00,69.0,64.6,29.91,South,180,0.0,0.0,86,0.00,,,0.00,WUHU216HW,2013-05-19 02:28:00,
2013-05-18 22:33:00,68.9,64.5,29.91,South,180,0.0,0.0,86,0.00,,,0.00,WUHU216HW,2013-05-19 02:33:00,
2013-05-18 22:38:00,68.9,64.5,29.91,South,180,0.0,0.0,86,0.00,,,0.00,WUHU216HW,2013-05-19 02:38:00,
2013-05-18 22:43:00,68.7,64.3,29.91,South,180,0.0,0.0,86,0.00,,,0.00,WUHU216HW,2013-05-19 02:43:00,
2013-05-18 22:48:00,68.7,64.3,29.91,South,180,0.0,0.0,86,0.00,,,0.00,WUHU216HW,2013-05-19 02:48:00,
2013-05-18 22:53:00,68.7,64.3,29.91,South,180,0.0,0.0,86,0.00,,,0.00,WUHU216HW,2013-05-19 02:53:00,
2013-05-18 22:58:00,68.7,64.3,29.91,South,180,0.0,0.0,86,0.00,,,0.00,WUHU216HW,2013-05-19 02:58:00,
2013-05-18 23:03:00,68.7,64.3,29.91,South,180,0.0,0.0,86,0.00,,,0.00,WUHU216HW,2013-05-19 03:03:00,
2013-05-18 23:08:00,68.7,64.3,29.91,South,180,0.0,0.0,86,0.00,,,0.00,WUHU216HW,2013-05-19 03:08:00,
2013-05-18 23:13:00,68.5,64.1,29.91,South,180,0.0,0.0,86,0.00,,,0.00,WUHU216HW,2013-05-19 03:13:00,
2013-05-18 23:18:00,68.5,64.1,29.91,South,180,0.0,0.0,86,0.00,,,0.00,WUHU216HW,2013-05-19 03:18:00,
2013-05-18 23:23:00,68.5,64.1,29.90,South,180,0.0,0.0,86,0.00,,,0.00,WUHU216HW,2013-05-19 03:23:00,
2013-05-18 23:28:00,68.5,64.1,29.90,South,180,0.0,0.0,86,0.00,,,0.00,WUHU216HW,2013-05-19 03:28:00,
2013-05-18 23:34:00,68.5,64.1,29.90,South,180,0.0,0.0,86,0.00,,,0.00,WUHU216HW,2013-05-19 03:34:00,
2013-05-18 23:39:00,68.5,64.1,29.90,South,180,0.0,0.0,86,0.00,,,0.00,WUHU216HW,2013-05-19 03:39:00,
2013-05-18 23:44:00,68.5,64.1,29.90,South,180,0.0,0.0,86,0.00,,,0.00,WUHU216HW,2013-05-19 03:44:00,
2013-05-18 23:49:00,68.5,64.1,29.91,South,180,0.0,0.0,86,0.00,,,0.00,WUHU216HW,2013-05-19 03:49:00,
2013-05-18 23:54:00,68.5,64.1,29.91,South,180,0.0,0.0,86,0.00,,,0.00,WUHU216HW,2013-05-19 03:54:00,
2013-05-18 23:59:00,68.5,64.1,29.90,South,180,0.0,0.0,86,0.00,,,0.00,WUHU216HW,2013-05-19 03:59:00,